Weather History for Pittsburgh Allegheny Co., PA

Change the Weather History Date:

Sunday, January 6, 2013

  Actual Average Record
Temperature  
Mean Temperature 34 °F -  
Max Temperature 37 °F 44 °F 59 °F (2007)
Min Temperature 32 °F 27 °F -7 °F (2014)
Degree Days  
Heating Degree Days 30    
Moisture  
Dew Point 28 °F    
Average Humidity 75    
Maximum Humidity 87    
Minimum Humidity 65    
Precipitation  
Precipitation 0.26 in - - ()
Sea Level Pressure  
Sea Level Pressure 30.09 in    
Wind  
Wind Speed 9 mph (SW)    
Max Wind Speed 14 mph    
Max Gust Speed 22 mph    
Visibility 10 miles    
Events Snow    
Averages and records for this station are not official NWS values.
T = Trace of Precipitation, MM = Missing Value Source: NWS Daily Summary

Daily Weather History Graph

Daily Weather History Graph

Search for Another Location

Airport:

Trip Planner

Search our weather history database for the weather conditions in past years. The results will help you decide how hot, cold, wet, or windy it might be!

Date:

Astronomy

Jan. 06, 2013 Rise Set
Actual Time 7:42 AM EST 5:08 PM EST
Civil Twilight 7:12 AM EST 5:39 PM EST
Nautical Twilight 6:38 AM EST 6:13 PM EST
Astronomical Twilight 6:05 AM EST 6:46 PM EST
Moon 1:54 AM EST (1/6) 12:35 PM EST (1/6)
Length of Visible Light 10h 26m
Length of Day
9h 26m
Waning Crescent, 33% of the Moon is Illuminated
Jan 6
Waning Crescent
Jan 11
New
Jan 18
First Quarter
Jan 26
Full
Feb 3
Last Quarter

Hourly Weather History & Observations

Time (EST) Temp. Windchill Dew Point Humidity Pressure Visibility Wind Dir Wind Speed Gust Speed Precip Events Conditions
12:53 AM 33.1 °F 26.1 °F 23.0 °F 66% 30.15 in 10.0 mi South 8.1 mph - N/A   Overcast
1:53 AM 33.1 °F 26.1 °F 24.1 °F 70% 30.15 in 10.0 mi South 8.1 mph - N/A   Overcast
2:53 AM 33.1 °F 26.9 °F 24.1 °F 70% 30.14 in 10.0 mi SSW 6.9 mph - N/A   Overcast
3:53 AM 33.1 °F 26.1 °F 24.1 °F 70% 30.12 in 10.0 mi South 8.1 mph - N/A   Overcast
4:53 AM 33.1 °F 26.1 °F 24.1 °F 70% 30.10 in 10.0 mi South 8.1 mph - N/A   Overcast
5:53 AM 32.0 °F 24.8 °F 24.1 °F 73% 30.10 in 10.0 mi SSW 8.1 mph - N/A   Overcast
6:53 AM 33.8 °F 26.4 °F 24.8 °F 70% 30.05 in 10.0 mi South 9.2 mph - N/A   Overcast
7:53 AM 32.0 °F 24.8 °F 25.0 °F 75% 30.09 in 10.0 mi SSW 8.1 mph - N/A   Overcast
8:53 AM 33.1 °F 24.9 °F 25.0 °F 72% 30.09 in 10.0 mi SSW 10.4 mph - N/A   Overcast
9:53 AM 34.0 °F 26.0 °F 26.1 °F 73% 30.09 in 10.0 mi South 10.4 mph - N/A   Overcast
10:53 AM 35.6 °F 28.0 °F 26.6 °F 70% 30.03 in 10.0 mi SSW 10.4 mph - N/A   Overcast
11:53 AM 37.0 °F 29.3 °F 26.1 °F 65% 30.06 in 10.0 mi SW 11.5 mph 21.9 mph 0.03 in   Overcast
12:53 PM 37.0 °F 28.5 °F 26.1 °F 65% 30.02 in 10.0 mi SW 13.8 mph - 0.02 in   Overcast
1:53 PM 37.0 °F 30.4 °F 27.0 °F 67% 30.02 in 10.0 mi SSW 9.2 mph - 0.02 in   Overcast
2:53 PM 37.9 °F 30.9 °F 27.0 °F 65% 30.02 in 10.0 mi SSW 10.4 mph - 0.03 in   Overcast
3:53 PM 37.0 °F 29.8 °F 28.0 °F 70% 30.04 in 10.0 mi SW 10.4 mph - 0.03 in   Overcast
4:22 PM 37.4 °F 30.8 °F 28.4 °F 70% 30.00 in 10.0 mi SW 9.2 mph - 0.02 in   Overcast
4:46 PM 37.4 °F 30.8 °F 28.4 °F 70% 30.01 in 10.0 mi SW 9.2 mph - 0.03 in   Overcast
4:53 PM 37.0 °F 31.0 °F 28.9 °F 73% 30.06 in 10.0 mi SW 8.1 mph - 0.03 in   Overcast
5:15 PM 35.6 °F 29.9 °F 28.4 °F 75% 30.02 in 8.0 mi SW 6.9 mph - 0.01 in Snow Light Snow
5:53 PM 36.0 °F 29.6 °F 30.0 °F 79% 30.08 in 10.0 mi WSW 8.1 mph - 0.02 in   Overcast
6:45 PM 35.6 °F 28.6 °F 30.2 °F 81% 30.05 in 10.0 mi WSW 9.2 mph - 0.03 in   Overcast
6:53 PM 35.1 °F 27.9 °F 30.0 °F 82% 30.11 in 10.0 mi WSW 9.2 mph - 0.03 in   Overcast
7:26 PM 35.6 °F 28.0 °F 30.2 °F 81% 30.07 in 10.0 mi WSW 10.4 mph - N/A   Overcast
7:40 PM 35.6 °F 29.2 °F 30.2 °F 81% 30.07 in 10.0 mi West 8.1 mph - N/A   Overcast
7:49 PM 35.6 °F 28.0 °F 30.2 °F 81% 30.07 in 10.0 mi West 10.4 mph - N/A   Overcast
7:53 PM 35.1 °F 26.9 °F 30.9 °F 85% 30.13 in 10.0 mi West 11.5 mph - N/A   Overcast
8:24 PM 35.6 °F 27.1 °F 30.2 °F 81% 30.08 in 10.0 mi West 12.7 mph - 0.01 in   Overcast
8:53 PM 35.1 °F 26.9 °F 30.0 °F 82% 30.14 in 10.0 mi West 11.5 mph - 0.02 in   Overcast
9:02 PM 35.6 °F 28.6 °F 30.2 °F 81% 30.09 in 10.0 mi West 9.2 mph - N/A   Overcast
9:53 PM 35.1 °F 27.4 °F 30.0 °F 82% 30.16 in 10.0 mi West 10.4 mph - 0.02 in   Overcast
10:29 PM 33.8 °F 27.0 °F 30.2 °F 87% 30.13 in 8.0 mi NW 8.1 mph - 0.01 in   Overcast
10:40 PM 33.8 °F 25.8 °F 28.4 °F 81% 30.14 in 9.0 mi NW 10.4 mph 19.6 mph 0.01 in   Overcast
10:53 PM 34.0 °F 28.0 °F 28.0 °F 79% 30.19 in 10.0 mi Variable 6.9 mph 16.1 mph 0.01 in   Overcast
11:25 PM 33.8 °F 27.0 °F 26.6 °F 75% 30.16 in 10.0 mi WNW 8.1 mph - N/A   Overcast
11:53 PM 34.0 °F 27.2 °F 27.0 °F 75% 30.22 in 10.0 mi West 8.1 mph - N/A   Overcast